Regional Weather Roundup
Issued by NWS

Home | Current Version | Previous Version | Graphics & Text | Print | Product List | Glossary On
Versions: 1 2 3 4 5 6 7 8 9 10 11 12 13 14 15 16 17 18 19 20 21 22 23 24 25 26 27 28 29 30 31 32 33 34 35 36 37 38 39 40 41 42 43 44 45 46 47 48 49 50
000
ASUS43 KLSX 230457
RWRMO

WEATHER SUMMARY FOR MISSOURI
NATIONAL WEATHER SERVICE SPRINGFIELD MO
1100 PM CST MON JAN 22 2018

NOTE: "FAIR" INDICATES FEW OR NO CLOUDS BELOW 12,000 FEET WITH NO
       SIGNIFICANT WEATHER AND/OR OBSTRUCTIONS TO VISIBILITY.
       CURRENT SKY AND/OR WEATHER CONDITIONS ARE NOT AVAILABLE FOR
       CHILLICOTHE AND FARMINGTON.

MOZ001>031-035>038-043-044-053-054-230600-
...NORTHERN AND WESTERN MISSOURI...

CITY           SKY/WX    TMP DP  RH WIND       PRES   REMARKS
KANSAS CTY INT LGT SNOW  30  27  88 NW17G24   29.80R FOG     WCI  18
LEE`S SUMMIT   CLOUDY    32  28  85 NW20G30   29.78R WCI  20
ST JOSEPH      MIX PCPN  32  29  88 NW25G35   29.80R WCI  19
CHILLICOTHE      N/A     33  29  85 NW13G24   29.69R WCI  24

$$
MOZ066>068-077>081-088>096-101>105-230600-
...SOUTHWEST MISSOURI...

CITY           SKY/WX    TMP DP  RH WIND       PRES   REMARKS
SPRINGFIELD    CLOUDY    34  28  79 W20G33    29.82R WCI  23
JOPLIN         CLOUDY    35  28  75 W20G31    29.91R WCI  24

$$
MOZ032>034-039>042-045>050-055>058-069>072-230600-
...CENTRAL MISSOURI...

CITY           SKY/WX    TMP DP  RH WIND       PRES   REMARKS
COLUMBIA       NOT AVBL
JEFFERSON CITY CLOUDY    35  31  85 W17G28    29.68R WCI  25
ROLLA          CLOUDY    33  28  81 W22G32    29.69R WCI  21
SEDALIA        LGT SNOW  34  32  92 W17G28    29.72R FOG     WCI  23
WARRENSBURG    CLOUDY    32  28  86 W18G26    29.75R WCI  20

$$
MOZ051-052-059>065-230600-
...EAST CENTRAL MISSOURI...

CITY           SKY/WX    TMP DP  RH WIND       PRES   REMARKS
ST LOUIS INTL  CLOUDY    39  29  67 W24G33    29.63R WCI  28

$$
MOZ072>076-082>087-097>100-106>115-230600-
...SOUTH CENTRAL AND SOUTHEAST MISSOURI...

CITY           SKY/WX    TMP DP  RH WIND       PRES   REMARKS
CAPE GIRARDEAU CLOUDY    42  30  62 W23G30    29.72R
FARMINGTON     MOCLDY    36  28  75 W17G28    29.68S WCI  25
POPLAR BLUFF   CLOUDY    44  28  53 W17G25    29.75S
WEST PLAINS    CLOUDY    36  26  67 W18G41    29.77R WCI  26

$$


USA.gov is the U.S. government's official web portal to all federal, state and local government web resources and services.